DLH390 EDDF-EDDL

Flight info

Callsign DLH390
Flight time N/A
Altitude 22000
Route MARUN3W MARUN Y152 ARPEG Z850 ADEMI T854 DOMUX DOMUX1A
Aircraft A359/H-SDE2E3GHIJ3J4J5LM1ORWXY/LB1D1

Departure

Time 2026-05-05 12:28
Airport Frankfurt Main Airport (EDDF)

Arrival

Time N/A
Airport Düsseldorf Airport (EDDL)
Time Latitude Longitude Altitude Speed Heading
2026-05-05 11:54 50.04602 8.56788 365 ft 0 kts 294°
2026-05-05 12:16 50.04602 8.56791 365 ft 1 kts 294°
2026-05-05 12:16 50.04598 8.56804 365 ft 1 kts 294°
2026-05-05 12:16 50.04593 8.56820 365 ft 2 kts 283°
2026-05-05 12:16 50.04591 8.56833 364 ft 3 kts 281°
2026-05-05 12:17 50.04589 8.56853 364 ft 3 kts 258°
2026-05-05 12:17 50.04596 8.56881 365 ft 3 kts 226°
2026-05-05 12:17 50.04605 8.56893 367 ft 0 kts 203°
2026-05-05 12:19 50.04604 8.56893 367 ft 0 kts 203°
2026-05-05 12:19 50.04593 8.56885 365 ft 4 kts 204°
2026-05-05 12:19 50.04574 8.56871 366 ft 0 kts 207°
2026-05-05 12:23 50.04572 8.56870 366 ft 1 kts 199°
2026-05-05 12:23 50.04553 8.56869 363 ft 6 kts 183°
2026-05-05 12:23 50.04493 8.56864 361 ft 11 kts 184°
2026-05-05 12:24 50.04408 8.56847 362 ft 13 kts 189°
2026-05-05 12:24 50.04315 8.56829 360 ft 14 kts 168°
2026-05-05 12:24 50.04286 8.56939 365 ft 10 kts 74°
2026-05-05 12:24 50.04318 8.57073 359 ft 16 kts 71°
2026-05-05 12:25 50.04362 8.57262 357 ft 20 kts 70°
2026-05-05 12:25 50.04416 8.57494 355 ft 25 kts 69°
2026-05-05 12:25 50.04478 8.57750 357 ft 26 kts 70°
2026-05-05 12:25 50.04533 8.57984 354 ft 20 kts 69°
2026-05-05 12:26 50.04577 8.58165 354 ft 16 kts 70°
2026-05-05 12:26 50.04620 8.58346 350 ft 19 kts 69°
2026-05-05 12:26 50.04644 8.58545 334 ft 9 kts 115°
2026-05-05 12:26 50.04630 8.58558 330 ft 8 kts 147°
2026-05-05 12:27 50.04526 8.58614 329 ft 18 kts 186°
2026-05-05 12:27 50.04462 8.58479 331 ft 17 kts 250°
2026-05-05 12:27 50.04427 8.58331 333 ft 0 kts 250°
2026-05-05 12:27 50.04382 8.58140 334 ft 56 kts 250°
2026-05-05 12:28 50.04158 8.57198 362 ft 126 kts 250°
2026-05-05 12:28 50.03792 8.55628 495 ft 171 kts 251°
2026-05-05 12:28 50.03408 8.53913 1360 ft 163 kts 251°
2026-05-05 12:28 50.02998 8.52242 1995 ft 175 kts 249°
2026-05-05 12:29 50.02707 8.50281 2278 ft 200 kts 268°
2026-05-05 12:29 50.02809 8.48022 2736 ft 216 kts 277°
2026-05-05 12:29 50.03015 8.45597 3126 ft 237 kts 278°
2026-05-05 12:29 50.03345 8.43009 3370 ft 250 kts 289°
2026-05-05 12:30 50.04360 8.40785 3574 ft 257 kts 317°
2026-05-05 12:30 50.05777 8.39039 3912 ft 261 kts 323°
2026-05-05 12:30 50.07241 8.37356 4226 ft 263 kts 323°
2026-05-05 12:30 50.08701 8.35675 4520 ft 265 kts 323°
2026-05-05 12:31 50.09205 8.35100 4612 ft 265 kts 323°
2026-05-05 12:31 50.11952 8.33039 5114 ft 269 kts 351°
2026-05-05 12:31 50.13817 8.33210 5399 ft 270 kts 12°
2026-05-05 12:31 50.15630 8.34003 5711 ft 271 kts 17°
2026-05-05 12:32 50.17434 8.34900 6004 ft 273 kts 17°
2026-05-05 12:32 50.19248 8.35794 6284 ft 274 kts 17°
2026-05-05 12:32 50.21075 8.36678 6554 ft 275 kts 17°
2026-05-05 12:32 50.22913 8.37560 6831 ft 277 kts 17°
2026-05-05 12:33 50.24762 8.38442 7113 ft 278 kts 17°
2026-05-05 12:33 50.26617 8.39323 7379 ft 279 kts 16°
2026-05-05 12:33 50.28455 8.40196 7622 ft 280 kts 17°
2026-05-05 12:33 50.30327 8.41105 7875 ft 281 kts 18°
2026-05-05 12:34 50.32179 8.42111 8127 ft 282 kts 19°
2026-05-05 12:34 50.34038 8.43148 8393 ft 283 kts 19°
2026-05-05 12:34 50.35899 8.44181 8654 ft 284 kts 19°
2026-05-05 12:34 50.37776 8.45217 9072 ft 288 kts 19°
2026-05-05 12:35 50.39666 8.46256 9804 ft 288 kts 19°
2026-05-05 12:35 50.41566 8.47299 10489 ft 290 kts 19°
2026-05-05 12:35 50.43480 8.48347 11138 ft 293 kts 19°
2026-05-05 12:35 50.45413 8.49406 11796 ft 295 kts 19°
2026-05-05 12:36 50.47362 8.50474 12433 ft 298 kts 19°
2026-05-05 12:36 50.49345 8.51495 13060 ft 301 kts 17°
2026-05-05 12:36 50.51367 8.52444 13676 ft 304 kts 16°
2026-05-05 12:36 50.53406 8.53396 14276 ft 307 kts 16°
2026-05-05 12:37 50.55455 8.54362 14784 ft 309 kts 16°
2026-05-05 12:37 50.57497 8.55331 14981 ft 310 kts 16°
2026-05-05 12:37 50.59564 8.56318 15006 ft 311 kts 17°
2026-05-05 12:37 50.61641 8.57312 15001 ft 312 kts 17°
2026-05-05 12:38 50.63725 8.58312 14997 ft 313 kts 17°
2026-05-05 12:38 50.65809 8.59313 15001 ft 313 kts 17°
2026-05-05 12:38 50.67893 8.60316 15000 ft 313 kts 17°
2026-05-05 12:38 50.69976 8.61320 15002 ft 313 kts 17°
2026-05-05 12:39 50.72059 8.62324 15000 ft 313 kts 17°
2026-05-05 12:39 50.74146 8.63327 15003 ft 313 kts 17°
2026-05-05 12:39 50.76230 8.64328 15000 ft 313 kts 16°
2026-05-05 12:39 50.78353 8.65038 14999 ft 313 kts
2026-05-05 12:40 50.80524 8.64989 15002 ft 312 kts 352°
2026-05-05 12:40 50.82607 8.64082 15001 ft 312 kts 337°
2026-05-05 12:40 50.84480 8.62371 15001 ft 311 kts 322°
2026-05-05 12:40 50.86072 8.60050 15000 ft 311 kts 314°
2026-05-05 12:41 50.87530 8.57517 15000 ft 311 kts 310°
2026-05-05 12:41 50.88921 8.54892 15000 ft 311 kts 309°
2026-05-05 12:41 50.90283 8.52240 14997 ft 311 kts 309°
2026-05-05 12:41 50.91649 8.49578 14999 ft 311 kts 309°
2026-05-05 12:42 50.93023 8.46926 15000 ft 311 kts 309°
2026-05-05 12:42 50.94406 8.44288 14998 ft 311 kts 309°
2026-05-05 12:42 50.95798 8.41656 15000 ft 312 kts 310°
2026-05-05 12:42 50.97196 8.39028 15000 ft 312 kts 310°
2026-05-05 12:43 50.98601 8.36390 15001 ft 312 kts 310°
2026-05-05 12:43 51.00011 8.33774 14999 ft 312 kts 311°
2026-05-05 12:43 51.01537 8.31385 14997 ft 312 kts 319°
2026-05-05 12:43 51.03299 8.29294 15002 ft 312 kts 326°
2026-05-05 12:44 51.05120 8.27473 15000 ft 312 kts 329°
2026-05-05 12:44 51.06995 8.25747 14999 ft 312 kts 330°
2026-05-05 12:44 51.08899 8.24069 15000 ft 313 kts 331°
2026-05-05 12:44 51.10808 8.22414 15001 ft 313 kts 331°
2026-05-05 12:45 51.12716 8.20759 15001 ft 312 kts 331°
2026-05-05 12:45 51.14620 8.19092 15001 ft 312 kts 330°
2026-05-05 12:45 51.16524 8.17408 15001 ft 312 kts 330°
2026-05-05 12:45 51.18422 8.15718 14999 ft 312 kts 330°
2026-05-05 12:46 51.20317 8.14024 15000 ft 312 kts 330°
2026-05-05 12:46 51.22211 8.12327 15001 ft 312 kts 330°
2026-05-05 12:46 51.24107 8.10628 15000 ft 312 kts 330°
2026-05-05 12:46 51.25976 8.08951 15000 ft 312 kts 330°
2026-05-05 12:47 51.27854 8.07263 14766 ft 305 kts 330°
2026-05-05 12:47 51.29669 8.05632 14612 ft 295 kts 330°
2026-05-05 12:47 51.31435 8.04045 14384 ft 288 kts 330°
2026-05-05 12:47 51.33169 8.02486 14051 ft 285 kts 330°
2026-05-05 12:48 51.34895 8.00933 13694 ft 283 kts 330°
2026-05-05 12:48 51.36601 7.99395 13338 ft 281 kts 330°
2026-05-05 12:48 51.38304 7.97859 12981 ft 279 kts 330°
2026-05-05 12:48 51.39991 7.96337 12619 ft 278 kts 330°
2026-05-05 12:49 51.41671 7.94811 12282 ft 275 kts 329°
2026-05-05 12:49 51.43214 7.93090 12082 ft 266 kts 320°
2026-05-05 12:49 51.44525 7.91036 11788 ft 263 kts 310°
2026-05-05 12:49 51.45565 7.88646 11441 ft 261 kts 299°
2026-05-05 12:50 51.46284 7.85991 11074 ft 260 kts 288°
2026-05-05 12:50 51.46663 7.83127 10567 ft 265 kts 276°
2026-05-05 12:50 51.46667 7.80205 10071 ft 260 kts 264°
2026-05-05 12:50 51.46351 7.77424 9574 ft 254 kts 257°
2026-05-05 12:51 51.45905 7.74713 9078 ft 251 kts 254°
2026-05-05 12:51 51.45407 7.72046 8559 ft 249 kts 253°
2026-05-05 12:51 51.44896 7.69408 8022 ft 246 kts 253°
2026-05-05 12:51 51.44403 7.66861 7756 ft 232 kts 253°
2026-05-05 12:52 51.43941 7.64433 7394 ft 225 kts 253°
2026-05-05 12:52 51.43494 7.62032 7018 ft 223 kts 253°
2026-05-05 12:52 51.43061 7.59669 6749 ft 219 kts 253°
2026-05-05 12:52 51.42636 7.57329 6419 ft 219 kts 254°
2026-05-05 12:53 51.42215 7.54985 6087 ft 218 kts 254°
2026-05-05 12:53 51.41795 7.52658 5765 ft 217 kts 253°
2026-05-05 12:53 51.41337 7.50363 5446 ft 215 kts 250°
2026-05-05 12:53 51.40790 7.48141 5165 ft 214 kts 244°
2026-05-05 12:54 51.38996 7.44325 5103 ft 215 kts 230°
2026-05-05 12:54 51.37989 7.42607 5104 ft 215 kts 220°
2026-05-05 12:54 51.36626 7.41701 5106 ft 216 kts 186°
2026-05-05 12:55 51.35155 7.42101 5114 ft 217 kts 159°
2026-05-05 12:55 51.33795 7.43150 5109 ft 217 kts 153°
2026-05-05 12:55 51.32528 7.44463 5101 ft 218 kts 138°
2026-05-05 12:55 51.31758 7.46519 5114 ft 219 kts 104°
2026-05-05 12:56 51.31804 7.48913 5112 ft 218 kts 74°
2026-05-05 12:56 51.32345 7.51178 5111 ft 218 kts 67°
2026-05-05 12:56 51.32910 7.53436 5110 ft 218 kts 68°
2026-05-05 12:56 51.33462 7.55690 5110 ft 218 kts 69°
2026-05-05 12:57 51.33998 7.57961 5110 ft 218 kts 69°
2026-05-05 12:57 51.34524 7.60206 5110 ft 218 kts 69°
2026-05-05 12:57 51.35118 7.62382 5104 ft 206 kts 62°
2026-05-05 12:57 51.35865 7.64250 5124 ft 197 kts 55°
2026-05-05 12:58 51.36653 7.66036 5111 ft 195 kts 54°
2026-05-05 12:58 51.37613 7.67555 5107 ft 196 kts 28°
2026-05-05 12:58 51.38915 7.68105 5107 ft 195 kts
2026-05-05 12:58 51.40243 7.67739 5110 ft 194 kts 342°
2026-05-05 12:59 51.41491 7.66913 5111 ft 194 kts 335°
2026-05-05 12:59 51.42681 7.65923 5018 ft 190 kts 326°
2026-05-05 12:59 51.43664 7.64621 4874 ft 179 kts 306°
2026-05-05 13:00 51.43849 7.60749 4094 ft 190 kts 252°
2026-05-05 13:00 51.43352 7.58679 3416 ft 210 kts 249°
2026-05-05 13:01 51.42044 7.52309 2897 ft 184 kts 255°
2026-05-05 13:01 51.41738 7.50409 2844 ft 170 kts 255°
2026-05-05 13:01 51.41436 7.48605 2701 ft 165 kts 255°
2026-05-05 13:01 51.41095 7.46870 2493 ft 166 kts 250°
2026-05-05 13:02 51.40712 7.45144 2337 ft 165 kts 249°
2026-05-05 13:02 51.40337 7.43418 2092 ft 163 kts 251°
2026-05-05 13:02 51.39984 7.41700 1813 ft 163 kts 252°
2026-05-05 13:02 51.39683 7.39946 1443 ft 161 kts 258°
2026-05-05 13:03 51.39597 7.38852 1419 ft 162 kts 264°
2026-05-05 13:03 51.39478 7.37034 1520 ft 163 kts 262°
2026-05-05 13:03 51.39336 7.35231 1688 ft 163 kts 263°
2026-05-05 13:03 51.39215 7.33434 1771 ft 163 kts 265°
2026-05-05 13:04 51.39115 7.31634 1794 ft 162 kts 264°
2026-05-05 13:04 51.38958 7.29847 1831 ft 162 kts 261°
2026-05-05 13:04 51.38766 7.28052 1865 ft 163 kts 259°
2026-05-05 13:04 51.38676 7.26250 1829 ft 163 kts 267°
2026-05-05 13:05 51.38622 7.24434 1846 ft 163 kts 265°
2026-05-05 13:05 51.38490 7.22632 1850 ft 163 kts 261°
2026-05-05 13:05 51.38283 7.20848 1867 ft 163 kts 258°
2026-05-05 13:05 51.38059 7.19093 1834 ft 163 kts 259°
2026-05-05 13:06 51.37906 7.17300 1764 ft 163 kts 264°
2026-05-05 13:06 51.37710 7.15528 1831 ft 163 kts 250°
2026-05-05 13:06 51.37200 7.13888 1817 ft 164 kts 240°
2026-05-05 13:06 51.36634 7.12316 1830 ft 163 kts 239°
2026-05-05 13:07 51.36093 7.10723 1852 ft 163 kts 243°
2026-05-05 13:07 51.35613 7.09078 1883 ft 163 kts 247°
2026-05-05 13:07 51.35061 7.07489 1944 ft 164 kts 236°
2026-05-05 13:07 51.34412 7.05983 1994 ft 164 kts 235°
2026-05-05 13:08 51.33755 7.04496 2088 ft 164 kts 235°
2026-05-05 13:08 51.33109 7.02998 2234 ft 162 kts 236°
2026-05-05 13:08 51.32492 7.01554 2131 ft 156 kts 236°
2026-05-05 13:08 51.31841 7.00113 2111 ft 163 kts 233°
2026-05-05 13:09 51.31154 6.98662 2108 ft 164 kts 233°
2026-05-05 13:09 51.30464 6.97213 2106 ft 164 kts 233°
2026-05-05 13:09 51.29775 6.95769 2109 ft 164 kts 233°
2026-05-05 13:09 51.29082 6.94323 2113 ft 164 kts 233°
2026-05-05 13:10 51.28304 6.92991 2106 ft 164 kts 224°
2026-05-05 13:10 51.27472 6.91740 2107 ft 164 kts 223°
2026-05-05 13:10 51.26719 6.90369 2120 ft 164 kts 232°
2026-05-05 13:10 51.26023 6.88940 2106 ft 164 kts 233°
2026-05-05 13:11 51.25333 6.87498 2109 ft 164 kts 233°
2026-05-05 13:11 51.24640 6.86050 2108 ft 164 kts 233°
2026-05-05 13:11 51.23958 6.84623 2108 ft 164 kts 233°
2026-05-05 13:11 51.23258 6.83161 2109 ft 164 kts 233°
2026-05-05 13:12 51.22567 6.81717 2121 ft 164 kts 233°
2026-05-05 13:12 51.21890 6.80259 2112 ft 164 kts 233°
2026-05-05 13:12 51.21252 6.78791 2104 ft 164 kts 241°
2026-05-05 13:12 51.20824 6.77105 2118 ft 164 kts 252°
2026-05-05 13:13 51.20790 6.75290 2112 ft 165 kts 286°
2026-05-05 13:13 51.21329 6.73716 2109 ft 164 kts 301°
2026-05-05 13:13 51.22088 6.72343 2053 ft 165 kts 314°
2026-05-05 13:13 51.22930 6.71048 1792 ft 164 kts 316°
2026-05-05 13:14 51.23928 6.70345 1515 ft 163 kts
2026-05-05 13:14 51.25027 6.70873 1160 ft 170 kts 20°
2026-05-05 13:14 51.26109 6.71805 787 ft 188 kts 36°
2026-05-05 13:14 51.26993 6.73214 424 ft 169 kts 50°
2026-05-05 13:15 51.27656 6.74609 258 ft 146 kts 51°
2026-05-05 13:15 51.28260 6.75836 241 ft 148 kts 54°
2026-05-05 13:15 51.28984 6.77356 644 ft 194 kts 51°
2026-05-05 13:15 51.29944 6.79220 1027 ft 240 kts 50°